Regional Weather Roundup
Issued by NWS

Home | Current Version | Previous Version | Graphics & Text | Print | Product List | Glossary On
Versions: 1 2 3 4 5 6 7 8 9 10 11 12 13 14 15 16 17 18 19 20 21 22 23 24 25 26 27 28 29 30 31 32 33 34 35 36 37 38 39 40 41 42 43 44 45 46 47 48 49 50
000
ASUS43 KLSX 182307
RWRMO

WEATHER SUMMARY FOR MISSOURI
NATIONAL WEATHER SERVICE SPRINGFIELD MO
500 PM CST WED JAN 18 2017

NOTE: "FAIR" INDICATES FEW OR NO CLOUDS BELOW 12,000 FEET WITH NO
       SIGNIFICANT WEATHER AND/OR OBSTRUCTIONS TO VISIBILITY.
       CURRENT SKY AND/OR WEATHER CONDITIONS ARE NOT AVAILABLE FOR
       CHILLICOTHE AND FARMINGTON.

MOZ001>031-035>038-043-044-053-054-190000-
...NORTHERN AND WESTERN MISSOURI...

CITY           SKY/WX    TMP DP  RH WIND       PRES   REMARKS
KANSAS CTY INT CLEAR     46  36  68 S10       30.00S
KANSAS C DTWN  CLEAR     48  38  68 SE7       30.01F
LEE`S SUMMIT   CLEAR     46  37  71 S7        30.02S
ST JOSEPH      CLEAR     46  39  76 S10       30.00S
CHILLICOTHE      N/A     41  37  86 SE6       30.05S
KIRKSVILLE     CLOUDY    37  35  92 S8        30.05F

$$
MOZ066>068-077>081-088>096-101>105-190000-
...SOUTHWEST MISSOURI...

CITY           SKY/WX    TMP DP  RH WIND       PRES   REMARKS
SPRINGFIELD    CLOUDY    48  39  71 SE9       30.04S
JOPLIN         CLOUDY    53  41  63 SE7       30.03S
BRANSON        CLOUDY    41  41 100 CALM      30.08R FOG

$$
MOZ032>034-039>042-045>050-055>058-069>072-190000-
...CENTRAL MISSOURI...

CITY           SKY/WX    TMP DP  RH WIND       PRES   REMARKS
COLUMBIA       CLEAR     47  34  60 SE6       30.06F
JEFFERSON CITY CLEAR     49  34  56 E3        30.06F
ROLLA          CLOUDY    48  36  63 SE7       30.04F
SEDALIA        CLOUDY    49  40  71 E3        30.05F
WHITEMAN AFB   MOCLDY    48  40  74 S5        30.02F
WARRENSBURG    MOCLDY    46  37  71 S5        30.03F
OSAGE BEACH    CLOUDY    53  34  48 CALM      30.06S

$$
MOZ051-052-059>065-190000-
...EAST CENTRAL MISSOURI...

CITY           SKY/WX    TMP DP  RH WIND       PRES   REMARKS
ST LOUIS INTL  CLOUDY    46  35  65 SE8       30.10S
SPIRIT OF STL  CLOUDY    46  36  68 E3        30.09F
ST CHARLES     PTCLDY    44  37  76 SE6       30.09F

$$
MOZ072>076-082>087-097>100-106>115-190000-
...SOUTH CENTRAL AND SOUTHEAST MISSOURI...

CITY           SKY/WX    TMP DP  RH WIND       PRES   REMARKS
CAPE GIRARDEAU CLOUDY    43  37  79 SE7       30.12F
FARMINGTON     CLOUDY    43  36  76 SE5       30.10F
POPLAR BLUFF   CLOUDY    44  40  85 CALM      30.12S
WEST PLAINS    CLOUDY    42  39  89 E5        30.10R

$$


USA.gov is the U.S. government's official web portal to all federal, state and local government web resources and services.